{"data":{"norad_id":60391,"intl_designator":"2024-140N","name":"QIANFAN-13","alt_names":[],"object_type":"PAYLOAD","status":"ACTIVE","operator":null,"country":"PRC","launch_date":"2024-08-06","launch_site_code":"TAISC","launch_vehicle":null,"mission":null,"orbit_class":"UNKNOWN","rcs_meters":null,"size_class":null,"mass_kg":null,"dimensions":null,"purposes":[],"wikipedia_slug":null,"has_3d_model":false,"image_url":null,"decayed_at":null,"tle_current":{"epoch":"2026-09-22T21:31:28.742016Z","epoch_age_seconds":79248,"freshness":"FRESH","line1":"1 60391U 24140N   26265.89686044  .00000050  00000+0  58271-4 0  9997","line2":"2 60391  88.9907 270.0137 0015053 104.9709 255.3110 13.51023889105638","mean_motion":13.51023889,"eccentricity":0.0015053,"inclination_deg":88.9907,"raan_deg":270.0137,"arg_perigee_deg":104.9709,"mean_anomaly_deg":255.311,"bstar":5.8271e-5,"rev_number":10563,"period_min":106.58582810596,"perigee_km":1057.2843890023,"apogee_km":1079.7032156958,"semimajor_km":7446.6308023491,"source":"CELESTRAK","updated_at":"2026-09-23T09:00:20.600225Z"}}}